Location: Charbonni�res
(45.9952°N, 2.9982°E)
Time: 15:24:44
(UTC+00:00)

ATLAS CENTAUR R/B - Visible Passes

Search period start: 12 June 2021 00:00
Search period end: 22 June 2021 00:00
Orbit: 472 x 671 km, 64.6° (Epoch: 08 June)

Date Brightness Start Highest point End Pass type
(mag) Time Alt. Az. Time Alt. Az. Time Alt. Az.
12 Jun 3.2 00:47:09 10° WNW 00:49:38 19° W 00:49:38 19° W visible
12 Jun 3.9 21:31:43 10° N 21:34:28 16° NE 21:37:18 10° ENE visible
12 Jun 1.5 23:09:37 10° NW 23:13:57 82° NE 23:15:12 47° SE visible
13 Jun 3.7 00:50:08 10° W 00:51:19 13° W 00:51:19 13° W visible
13 Jun 3.5 21:33:32 10° NNW 21:36:49 21° NE 21:40:14 10° E visible
13 Jun 1.5 23:11:46 10° NW 23:16:05 69° WSW 23:16:58 54° S visible
14 Jun 3.1 21:35:26 10° NNW 21:39:08 27° NE 21:42:38 12° E visible
14 Jun 1.9 23:13:59 10° NW 23:18:11 47° WSW 23:18:45 44° SW visible
15 Jun 2.6 21:37:23 10° NNW 21:41:23 37° NE 21:44:29 16° ESE visible
15 Jun 2.5 23:16:19 10° NW 23:20:14 32° WSW 23:20:37 32° SW visible
16 Jun 2.1 21:39:24 10° NNW 21:43:37 51° NE 21:46:23 21° ESE visible
16 Jun 3.1 23:18:48 10° WNW 23:22:15 22° WSW 23:22:31 22° WSW visible
17 Jun 1.6 21:41:26 10° NNW 21:45:47 73° NE 21:48:20 25° SE visible
17 Jun 3.6 23:21:36 10° WNW 23:24:14 16° WSW 23:24:28 15° WSW visible
18 Jun 1.5 21:43:33 10° NW 21:47:55 79° SW 21:50:19 27° SSE visible
18 Jun 4.0 23:25:33 10° W 23:26:08 10° WSW 23:26:27 10° WSW visible
19 Jun 1.9 21:45:44 10° NW 21:50:00 54° WSW 21:52:21 26° S visible
20 Jun 2.5 21:48:01 10° NW 21:52:04 37° WSW 21:54:26 21° S visible
21 Jun 3.1 21:50:26 10° WNW 21:54:04 25° WSW 21:56:34 16° SSW visible
